Regional Weather Roundup
Issued by NWS Grand Forks, ND

Home | Current Version | Previous Version | Text Only | Print | Product List | Glossary On
Versions: 1 2 3 4 5 6 7 8 9 10 11 12 13 14 15 16 17 18 19 20 21 22 23 24 25 26 27 28 29 30 31 32 33 34 35 36 37 38 39 40 41 42 43 44 45 46 47 48 49 50
000
ASUS43 KFGF 182031
RWRFGF
PRAIRIE TO PINES  WEATHER ROUNDUP
NATIONAL WEATHER SERVICE EASTERN NORTH DAKOTA/GRAND FORKS ND
200 PM CST SUN NOV 18 2018

 **SATELLITE DATA USED TO AUGMENT SKY COVER AT AUTOMATED STATIONS**
 *****  WEATHER ACROSS EASTERN NORTH DAKOTA  *****

CITY           SKY/WX    TMP DP  RH WIND       PRES   REMARKS
GRAND FORKS    CLOUDY    19  12  74 NE8       30.00S WCI   9
GRAND FRKS AFB CLOUDY    19  14  79 N8        30.00R WCI   9
GRAND FRKS NWS   N/A     20  16  85 VRB5      29.97R WCI  13
DEVILS LAKE    CLOUDY    18  14  84 NE10      29.96R WCI   6
FARGO          PTSUNNY   24  17  74 SW7       29.97F WCI  16
WAHPETON ARPT    N/A     28  21  74 S8        29.98F WCI  20
$$

 ***** WEATHER ACROSS CENTRAL AND WESTERN NORTH DAKOTA  *****

CITY           SKY/WX    TMP DP  RH WIND       PRES   REMARKS
BISMARCK       PTSUNNY   30  21  69 W7        29.93F WCI  23
MINOT          LGT SNOW  26  22  84 N8        29.90F VSB 1   WCI  18
JAMESTOWN      PTSUNNY   27  20  75 W8        29.92S WCI  19
MINOT AFB      LGT SNOW  21  18  86 NE10      29.90F FOG     WCI  10
GARRISON         N/A     29  22  75 MISG      29.90S
WILLISTON      CLOUDY    31  20  63 NW9       29.90F WCI  23
DICKINSON      PTSUNNY   31  22  69 W15       29.86F WCI  20
HETTINGER      CLOUDY    34  22  61 W15       29.91F WCI  24
$$

 *****  OTHER AIRPORT OBSERVATIONS IN OUR AREA  *****

CITY           SKY/WX    TMP DP  RH WIND       PRES   REMARKS
WALHALLA       LGT SNOW  16  18 100 NE7       30.03S WCI   6
GRAFTON AIRPOR FAIR      18  12  79 N9        30.04R WCI   6
VALLEY CITY AR MOCLDY    27  21  80 NW7       29.95R WCI  19
CANDO          CLOUDY    18  12  79 E7        29.99R WCI   8
CAVALIER APRT  FLURRIES  16  10  79 N8        30.03S WCI   5
GWINNER          N/A     23  19  86 CALM      29.95F
SHEYENNE NWR     N/A     25  19  77 W7        29.95S WCI  17
ROLLA          MOCLDY    12  10  92 NE10      29.95S WCI  -1
 ***** THE ABOVE OBSERVATIONS ARE NON NWS ARE NOT QUALITY
       CONTROLLED AND MAY MIS-REPORT RAIN FOR SNOW...
$$

  *****  WEATHER ACROSS NORTHERN MINNESOTA  *****

CITY           SKY/WX    TMP DP  RH WIND       PRES   REMARKS
FLAG ISLAND    CLOUDY    16   9  73 N7        30.01S WCI   6
WARROAD        FLURRIES  16  10  79 N5        30.01F WCI   9
ROSEAU         CLOUDY    18  10  73 NE6       30.01F WCI   9
HALLOCK        CLOUDY    19  12  73 NE6       30.02S WCI  11
THF RVR FALLS  FAIR      20  12  71 NE3       29.99F
BAUDETTE       CLOUDY    16   9  74 CALM      30.00S
WASKISH        CLOUDY    18  12  79 CALM      29.98F
CROOKSTON      CLOUDY    19  16  86 NE3       30.01R
STEPHEN NDAWN    N/A     19  10  68 NE6         N/A  WCI  11
GREENBUSH NDAW   N/A     18  10  73 NE5         N/A  WCI  11
$$
  *****  WEATHER ACROSS CENTRAL AND WEST MINNESOTA  *****

CITY           SKY/WX    TMP DP  RH WIND       PRES   REMARKS
FOSSTON        LGT SNOW  18  12  79 S6        29.97F WCI   9
BEMIDJI        FAIR      20  13  73 CALM      29.96F
PARK RAPIDS    PTSUNNY   23  17  78 SW9       29.95F WCI  13
ELBOW LAKE     FAIR      25  19  77 SW12      29.99F WCI  14
WADENA         FAIR      25  18  74 SW10      29.96F WCI  15
DETROIT LAKES  CLOUDY    25  21  86 SW6       29.96F WCI  18
MOORHEAD       FAIR      23  16  74 CALM      29.97F
FERGUS FALLS   FAIR      25  19  80 SW9       30.01F WCI  15
MORRIS MN      FAIR      25  18  74 S7        29.99F WCI  17
STAPLES        FAIR      25  18  74 SW8       29.97F WCI  16
$$
  *****  WEATHER ELSEWHERE ACROSS MINNESOTA  *****

CITY           SKY/WX    TMP DP  RH WIND       PRES   REMARKS
DULUTH         FAIR      22  13  68 SW9       30.00F WCI  12
INTRNTL FALLS  CLOUDY    18  11  74 NW3       30.01F
ELY            CLOUDY    18   9  68 SW7       29.98S WCI   8
CLOQUET        FAIR      23  12  63 SW3       30.00F
WHEATON        FAIR      27  18  69 S6        30.01F WCI  20
BRAINERD       FAIR      26  15  63 SW13      29.99F WCI  15
HIBBING        PTSUNNY   19  11  70 SW5       29.99F WCI  12
ALEXANDRIA     FAIR      28  18  66 S12       30.00F WCI  18
SAINT CLOUD    FAIR      28  14  55 SW14      30.04F WCI  17
MINNEAPOLIS    PTSUNNY   26  13  57 S10       30.10F WCI  16
$$

  *****  WEATHER ACROSS SOUTH DAKOTA  *****

CITY           SKY/WX    TMP DP  RH WIND       PRES   REMARKS
SIOUX FALLS    FAIR      38  22  52 SW15G23   30.06F
BROOKINGS      FAIR      34  26  72 S14       29.99F WCI  25
WATERTOWN      FAIR      31  23  72 SW10      29.96F WCI  22
HURON          FAIR      43  22  43 W13       29.98F
SISSETON         N/A     27  19  72 SW10      29.96F WCI  17
ABERDEEN       FAIR      28  22  78 S7        29.97F WCI  21
MITCHELL       FAIR      43  23  45 S15G28    30.01F
PIERRE         FAIR      40  23  50 W8        29.95F
MOBRIDGE       FAIR      35  26  69 CALM      29.92F
RAPID CITY     FAIR      37  29  72 SW3       29.94F
$$

  *****  SOME WEATHER IN NEARBY STATES *****

CITY           SKY/WX    TMP DP  RH WIND       PRES   REMARKS
GLASGOW MT     CLOUDY    33  27  78 W7        29.89F
GREAT FALLS MT FAIR      39  24  55 SW18      29.98F
CHEYENNE WY    FAIR      40  15  36 W16       29.99F
SCOTTSBLUFF NE FAIR      21  18  88 SE3       30.03F
OMAHA NE       FAIR      30   9  41 S9        30.23F WCI  22
DES MOINES IA  FAIR      29  15  56 SW7       30.24F WCI  22
DAVENPORT IA   FAIR      29  18  63 W7        30.26F WCI  22
CHICAGO IL     PTSUNNY   36  26  67 W7        30.19F
EAU CLAIRE WI  FAIR      26  12  55 SW13      30.12F WCI  15
LA CROSSE WI   FAIR      28   7  41 SW8       30.18F WCI  20
$$

  *****  SOME NATIONAL WEATHER *****

CITY           SKY/WX    TMP DP  RH WIND       PRES   REMARKS
LA GUARDIA NY  CLOUDY    44  25  47 S7        30.30F
RALEIGH NC     PTSUNNY   58  41  53 VRB3      30.24F
ATLANTA GA     FAIR      65  44  46 N3        30.19F
NEW ORLEANS LA FAIR      70  51  51 N6        30.16F
OKLAHOMA CITY  CLOUDY    29  27  92 N12       30.26F FOG     WCI  19
ALBUQUERQUE NM FAIR      50  22  33 SW6       30.13F
SALT LAKE CITY PTSUNNY   41  22  46 CALM      30.30F
LOS ANGELES CA FAIR      69  55  60 W9        30.04F HAZE
BOISE ID       FAIR      45  26  47 NW3       30.31F
SEATTLE WA     FAIR      52  33  48 N3        30.18F
$$

*** WEATHER ACROSS MANITOBA...SASKATCHEWAN AND ONTARIO ***
                ***ONTARIO***

CITY           SKY/WX    TMP DP  RH WIND       PRES   REMARKS
GERALDTON      LGT SNOW  12   3  67 W5        29.96R WCI   4
THUNDER BAY    CLOUDY    19   7  58 NW9       30.04S WCI   9
SIOUX LOOKOUT  SNOWSHWR  10   3  72 N6        30.00S WCI   1
TORONTO        CLOUDY    34  21  60 SE8       30.17F
BIG TROUT LK   CLOUDY    -2  -8  78 NW13G18   30.06S WCI -21
PICKLE LAKE    FLURRIES   3  -8  60 W5        30.02R WCI  -6
DRYDEN         NOT AVBL
KENORA         FLURRIES  12   1  62 N7        30.00S WCI   2
$$
                *** MANITOBA***

CITY           SKY/WX    TMP DP  RH WIND       PRES   REMARKS
BRANDON        LGT SNOW  10   3  72 E17       30.02F WCI  -7
DAUPHIN        CLOUDY     9   5  85 NE12      30.10S WCI  -6
ISLAND LAKE    PTSUNNY    0  -9  65 NW8       30.14R WCI -15
PILOT MOUND      N/A     14   9  79 NE12        N/A  WCI   0
THE PAS        PTSUNNY    5  -4  66 N5        30.17S WCI  -4
THOMPSON       SUNNY     -9 -18  64 NW7       30.21S WCI -24
WINNIPEG       FLURRIES  14   5  67 NE14      30.07S WCI  -1
LYNN LAKE      SUNNY     -9 -17  70 NW5       30.20R WCI -21
CHURCHILL      CRYSTALS -15 -20  76 NW17      30.21R WCI -40
GILLAM         SUNNY    -15 -22  70 W10       30.19R WCI -35
$$
                ***SASKATCHEWAN***

CITY           SKY/WX    TMP DP  RH WIND       PRES   REMARKS
ESTEVAN        PTSUNNY   21  18  86 N3        29.90F
KINDERSLEY     LGT SNOW  25  21  86 SW8       29.87R WCI  16
LLOYDMINSTER   FLURRIES  16  12  86 E10       29.87R WCI   3
PRINCE ALBERT  FLURRIES   7   1  78 E12       30.09S WCI  -9
REGINA         FLURRIES  19  14  79 VRB2      29.92S
YORKTON          N/A    N/A N/A N/A MISG        N/A
N. BATTLEFORD  FLURRIES  12   7  79 E16       29.97R WCI  -4
LA RONGE       FLURRIES   7   0  72 E7        30.15R WCI  -5
SASKATOON      LGT SNOW  14   9  79 E13       29.99R DRFTSNOWWCI   0
SWIFT CURRENT  LGT SNOW  27  23  86 W6        29.84S WCI  20
$$
NOTE: THESE ARE AUTOMATED STATIONS WITH LIMITED QUALITY CONTROL
      "FAIR" INDICATES FEW OR NO CLOUDS BELOW 12,000 FEET WITH NO
      SIGNIFICANT WEATHER AND/OR OBSTRUCTIONS TO VISIBILITY.
      SKY/WX - SKY CONDITION AND SIGNIFICANT WEATHER.
      TMP - AIR TEMPERATURE.    DP   - DEWPOINT TEMPERATURE.
      RH  - RELATIVE HUMIDITY.  PRES - PRESSURE.
      HX  - HEAT INDEX.         WCI  - WIND CHILL INDEX.
$



USA.gov is the U.S. government's official web portal to all federal, state and local government web resources and services.